Regional Weather Roundup
Issued by NWS Grand Forks, ND

Home | Current Version | Previous Version | Text Only | Print | Product List | Glossary On
Versions: 1 2 3 4 5 6 7 8 9 10 11 12 13 14 15 16 17 18 19 20 21 22 23 24 25 26 27 28 29 30 31 32 33 34 35 36 37 38 39 40 41 42 43 44 45 46 47 48 49 50
000
ASUS43 KFGF 300231
RWRFGF
PRAIRIE TO PINES  WEATHER ROUNDUP
NATIONAL WEATHER SERVICE EASTERN NORTH DAKOTA/GRAND FORKS ND
900 PM CDT SUN MAR 29 2015

 **SATELLITE DATA USED TO AUGMENT SKY COVER AT AUTOMATED STATIONS**
 *****  WEATHER ACROSS EASTERN NORTH DAKOTA  *****

CITY           SKY/WX    TMP DP  RH WIND       PRES   REMARKS
GRAND FORKS    PTCLDY    41  30  65 W8        29.89R
GRAND FRKS AFB CLOUDY    43  30  59 NW6       29.90R
GRAND FRKS NWS   N/A     41 N/A N/A NW6         N/A
DEVILS LAKE    CLEAR     43  30  61 W7        29.92R
FARGO          PTCLDY    45  28  51 W5        29.92R
WAHPETON ARPT  CLOUDY    39  30  70 W8        29.95S
$$

 ***** WEATHER ACROSS CENTRAL AND WESTERN NORTH DAKOTA  *****

CITY           SKY/WX    TMP DP  RH WIND       PRES   REMARKS
BISMARCK       CLEAR     51  27  39 CALM      29.97S
MINOT          PTCLDY    40  30  67 CALM      29.92S
JAMESTOWN      PTCLDY    45  30  55 W9        29.93S
MINOT AFB      CLEAR     46  36  68 NE2       29.90F
GARRISON         N/A     44  31  60 W7        29.93S
WILLISTON      MOCLDY    49  34  56 SW7       29.91S
DICKINSON      MOCLDY    45  29  53 W3        29.95S
HETTINGER      MOCLDY    46  30  53 CALM      30.00S
$$

 *****  OTHER AIRPORT OBSERVATIONS IN OUR AREA  *****

CITY           SKY/WX    TMP DP  RH WIND       PRES   REMARKS
WALHALLA         N/A     41  32  70 W8        29.89R
GRAFTON AIRPOR NOT AVBL
VALLEY CITY AR MOCLDY    39  30  70 W7        29.93S
CANDO          FAIR      37  32  81 NW5       29.92S
CAVALIER APRT  FAIR      41  32  70 W10       29.89R
GWINNER        CLEAR     43  32  65 W10         N/A
SHEYENNE NWR     N/A     42  28  56 W5        29.95
ROLLA          FAIR      36  30  80 W6        29.91F
 ***** THE ABOVE OBSERVATIONS ARE NON NWS ARE NOT QUALITY
       CONTROLLED AND MAY MIS-REPORT RAIN FOR SNOW...
$$

  *****  WEATHER ACROSS NORTHERN MINNESOTA  *****

CITY           SKY/WX    TMP DP  RH WIND       PRES   REMARKS
FLAG ISLAND    CLEAR     43  27  52 W10       29.80R
WARROAD        CLEAR     39  28  65 W8        29.83S
ROSEAU         CLEAR     41  28  60 W7        29.84S
HALLOCK        CLEAR     39  34  81 W6        29.87R
THF RVR FALLS  CLEAR     39  30  70 SW8       29.88S
BAUDETTE       CLEAR     39  26  59 W8        29.81R
WASKISH        CLEAR     36  28  75 CALM      29.84S
CROOKSTON      PTCLDY    37  27  65 W7        29.90S
STEPHEN NDAWN    N/A     39  30  70 W5          N/A
GREENBUSH NDAW   N/A     36  30  80 SW5         N/A
$$
  *****  WEATHER ACROSS CENTRAL AND WEST MINNESOTA  *****

CITY           SKY/WX    TMP DP  RH WIND       PRES   REMARKS
FOSSTON        CLEAR     32  27  80 CALM      29.89F
BEMIDJI        CLEAR     38  26  61 W6        29.87S
PARK RAPIDS    CLEAR     34  25  69 W6        29.89R
ELBOW LAKE     MOCLDY    41  28  60 NW5       29.95R
WADENA         CLOUDY    39  27  60 SW3       29.92S
DETROIT LAKES  PTCLDY    43  30  61 W5        29.92S
MOORHEAD       MOCLDY    45  30  57 W6        29.94R
FERGUS FALLS   MOCLDY    43  28  56 W3        29.96S
MORRIS MN      CLEAR     39  28  65 W7        29.96R
STAPLES        CLEAR     34  25  69 W6        29.92S
$$
  *****  WEATHER ELSEWHERE ACROSS MINNESOTA  *****

CITY           SKY/WX    TMP DP  RH WIND       PRES   REMARKS
DULUTH         PTCLDY    41  24  51 NW15G22   29.80R
INTRNTL FALLS  CLEAR     37  25  61 W5        29.79R
ELY            PTCLDY    37  25  60 W7        29.77R
CLOQUET        CLEAR     39  23  52 W6        29.84R
WHEATON        CLEAR     39  27  60 SW5       29.98S
BRAINERD       CLEAR     44  22  41 NW9       29.90R
HIBBING        CLEAR     37  24  59 W6        29.81R
ALEXANDRIA     CLOUDY    39  26  59 W7        29.95R
SAINT CLOUD    CLEAR     43  25  49 NW13      29.92R
MINNEAPOLIS    CLEAR     46  27  47 W12       29.93R
$$

  *****  WEATHER ACROSS SOUTH DAKOTA  *****

CITY           SKY/WX    TMP DP  RH WIND       PRES   REMARKS
SIOUX FALLS    CLEAR     44  20  38 W5        30.05R
BROOKINGS      NOT AVBL
WATERTOWN      CLEAR     39  25  57 W7        30.01R
HURON          CLEAR     43  19  38 W3        30.03R
SISSETON         N/A     44  28  53 W10       29.96S
ABERDEEN       CLEAR     42  22  44 CALM      30.00S
MITCHELL       CLEAR     49  21  33 SW5       30.06R
PIERRE         CLEAR     53  28  38 SW3       30.02S
MOBRIDGE       CLEAR     44  30  57 N5        29.97S
RAPID CITY     MOCLDY    50  27  40 NE3       30.05S
$$

  *****  SOME WEATHER IN NEARBY STATES *****

CITY           SKY/WX    TMP DP  RH WIND       PRES   REMARKS
GLASGOW MT     PTCLDY    52  30  43 SW6       29.90F
GREAT FALLS MT CLOUDY    53  29  39 SW28G33   30.00F
CHEYENNE WY    MOCLDY    51  21  30 SW14      30.17S
SCOTTSBLUFF NE CLOUDY    52  23  32 E5        30.12R
OMAHA NE       CLEAR     55  21  26 W7        30.10R
DES MOINES IA  CLEAR     54  21  27 NW12      30.05R
DAVENPORT IA   CLEAR     42  31  64 NW10      29.95R
CHICAGO IL     PTCLDY    45  34  65 NW14      29.86R
EAU CLAIRE WI  CLEAR     43  25  49 W9        29.86R
LA CROSSE WI   CLEAR     48  28  46 W10       29.87R
$$

  *****  SOME NATIONAL WEATHER *****

CITY           SKY/WX    TMP DP  RH WIND       PRES   REMARKS
LA GUARDIA NY  PTCLDY    40  23  50 S7        30.14F
RALEIGH NC     MOCLDY    44  15  31 S7        30.25S
ATLANTA GA     CLOUDY    58  26  29 S9        30.26R
NEW ORLEANS LA PTCLDY    68  62  81 S8        30.21S
OKLAHOMA CITY  CLEAR     66  42  41 NE6       30.11R
ALBUQUERQUE NM CLOUDY    70  19  14 E20       30.14R
SALT LAKE CITY PTCLDY    60  22  23 NW9       30.19F
LOS ANGELES CA PTCLDY    62  57  83 W7        29.99R
BOISE ID       CLEAR     62  26  25 NW6       30.16S
SEATTLE WA     CLOUDY    58  45  62 SW8       30.18F
$$

*** WEATHER ACROSS MANITOBA...SASKATCHEWAN AND ONTARIO ***
                ***ONTARIO***

CITY           SKY/WX    TMP DP  RH WIND       PRES   REMARKS
GERALDTON      FLURRIES  36  30  80 N6        29.50R
THUNDER BAY    MOCLDY    36  32  87 W7        29.65R
SIOUX LOOKOUT  SNOWSHWR  32  32 100 N5        29.69S FOG
TORONTO        FLURRIES  34  30  86 S16G23    29.83F WCI  23
BIG TROUT LK   FLURRIES  16  12  86 N12G22    29.73R WCI   3
PICKLE LAKE    FLURRIES  27  19  74 NW12G21   29.64R WCI  16
DRYDEN         LGT RAIN  36  27  69 W10       29.69F
KENORA         PTCLDY    39  27  60 W7        29.76R
$$
                *** MANITOBA***

CITY           SKY/WX    TMP DP  RH WIND       PRES   REMARKS
BRANDON        PTCLDY    36  30  80 NW8       29.90S
DAUPHIN        CLEAR     39  30  70 W15       29.85S
ISLAND LAKE    CLOUDY    19  14  79 N6        29.86  WCI  11
PILOT MOUND      N/A     37  30  75 W7          N/A
THE PAS        PTCLDY    37  23  56 CALM      29.78S
THOMPSON       CLEAR     19  14  79 E3        29.84S
WINNIPEG       PTCLDY    39  27  60 W9        29.85R
LYNN LAKE      CLEAR     28  23  80 SE3       29.75S
CHURCHILL      CRYSTALS   5   0  78 N7        29.97S WCI  -7
GILLAM         CLEAR      7  -2  66 E5        29.91R WCI  -2
$$
                ***SASKATCHEWAN***

CITY           SKY/WX    TMP DP  RH WIND       PRES   REMARKS
ESTEVAN        MOCLDY    43  36  75 E6        29.88F
KINDERSLEY     MOCLDY    48  37  66 SE10      29.74F
LLOYDMINSTER   MOCLDY    43  34  70 S8        29.74S
PRINCE ALBERT  CLOUDY    45  32  61 SW5       29.78F
REGINA         MOCLDY    46  36  66 SE8       29.84F
YORKTON        CLEAR     43  32  65 SW6       29.86S
N. BATTLEFORD  CLOUDY    45  37  76 E9        29.77F
LA RONGE       CLOUDY    41  23  48 SE2       29.73F
SASKATOON      MOCLDY    48  36  61 SE3       29.80F
SWIFT CURRENT  CLOUDY    48  34  57 SW12      29.79F
$$
NOTE: THESE ARE AUTOMATED STATIONS WITH LIMITED QUALITY CONTROL
      "FAIR" INDICATES FEW OR NO CLOUDS BELOW 12,000 FEET WITH NO
      SIGNIFICANT WEATHER AND/OR OBSTRUCTIONS TO VISIBILITY.
      SKY/WX - SKY CONDITION AND SIGNIFICANT WEATHER.
      TMP - AIR TEMPERATURE.    DP   - DEWPOINT TEMPERATURE.
      RH  - RELATIVE HUMIDITY.  PRES - PRESSURE.
      HX  - HEAT INDEX.         WCI  - WIND CHILL INDEX.
$



USA.gov is the U.S. government's official web portal to all federal, state and local government web resources and services.